Weather History for KMIE - January, 2015

Change the Weather History Date:

Saturday, January 24, 2015

  Actual Average Record
Temperature  
Mean Temperature 32 °F 26 °F  
Max Temperature 38 °F 34 °F 63 °F (1967)
Min Temperature 26 °F 19 °F -18 °F (1963)
Degree Days  
Heating Degree Days 33 39  
Month to date heating degree days 972 927  
Since 1 July heating degree days 3284 3125  
Cooling Degree Days 0 0  
Month to date cooling degree days 0 0  
Year to date cooling degree days 0 0  
Moisture  
Dew Point 27 °F    
Average Humidity 80    
Maximum Humidity 84    
Minimum Humidity 76    
Precipitation  
Precipitation 0.00 in 0.07 in 0.72 in (1965)
Month to date precipitation 1.68 1.70  
Year to date precipitation 1.68 1.70  
Sea Level Pressure  
Sea Level Pressure 29.75 in    
Wind  
Wind Speed 9 mph (WSW)    
Max Wind Speed 16 mph    
Max Gust Speed 21 mph    
Visibility 8 miles    
Events      
T = Trace of Precipitation, MM = Missing Value Source: NWS Daily Summary

Daily Weather History Graph

Daily Weather History Graph

Search for Another Location

Airport or City:

Trip Planner

Search our weather history database for the weather conditions in past years. The results will help you decide how hot, cold, wet, or windy it might be!

Date:

Astronomy

Jan. 24, 2015 Rise Set
Actual Time 7:57 AM EST 5:50 PM EST
Civil Twilight 7:28 AM EST 6:19 PM EST
Nautical Twilight 6:55 AM EST 6:52 PM EST
Astronomical Twilight 6:22 AM EST 7:24 PM EST
Moon 10:25 AM EST (1/24) 11:08 PM EST (1/24)
Length of Visible Light 10h 51m
Length of Day
9h 53m
Waxing Crescent, 23% of the Moon is Illuminated
Jan 24
Waxing Crescent
Jan 26
First Quarter
Feb 3
Full
Feb 11
Last Quarter
Feb 18
New

Hourly Weather History & Observations

Time (EST) Temp. Windchill Dew Point Humidity Pressure Visibility Wind Dir Wind Speed Gust Speed Precip Events Conditions
12:46 AM 28.9 °F 21.9 °F 23.0 °F 78% 29.86 in 10.0 mi West 6.9 mph - N/A   Overcast
12:53 AM 28.9 °F 21.1 °F 23.0 °F 78% 29.87 in 10.0 mi West 8.1 mph - N/A   Overcast
1:28 AM 28.9 °F 18.6 °F 24.1 °F 82% 29.83 in 10.0 mi NW 12.7 mph - N/A   Overcast
1:53 AM 27.0 °F 18.7 °F 21.9 °F 81% 29.84 in 10.0 mi WNW 8.1 mph - N/A   Overcast
2:53 AM 28.0 °F 18.6 °F 23.0 °F 81% 29.84 in 9.0 mi WNW 10.4 mph - N/A   Overcast
3:27 AM 28.0 °F 19.3 °F 21.9 °F 78% 29.80 in 10.0 mi West 9.2 mph - N/A   Overcast
3:48 AM 26.6 °F 19.1 °F 21.2 °F 80% 29.79 in 9.0 mi WSW 6.9 mph - N/A   Scattered Clouds
3:53 AM 27.0 °F 19.5 °F 21.9 °F 81% 29.81 in 9.0 mi SW 6.9 mph - N/A   Partly Cloudy
4:53 AM 27.0 °F 19.5 °F 21.9 °F 81% 29.78 in 8.0 mi SW 6.9 mph - N/A   Clear
5:53 AM 28.0 °F 20.8 °F 23.0 °F 81% 29.77 in 8.0 mi SW 6.9 mph - N/A   Overcast
6:53 AM 27.0 °F 18.7 °F 23.0 °F 85% 29.76 in 8.0 mi SW 8.1 mph - N/A   Mostly Cloudy
7:53 AM 27.0 °F 18.7 °F 23.0 °F 85% 29.75 in 7.0 mi SW 8.1 mph - N/A   Clear
8:53 AM 27.0 °F 20.5 °F 23.0 °F 85% 29.75 in 6.0 mi SW 5.8 mph - N/A   Clear
9:53 AM 30.0 °F 20.5 °F 25.0 °F 82% 29.75 in 6.0 mi WSW 11.5 mph - N/A   Haze
10:53 AM 32.0 °F 22.1 °F 26.1 °F 79% 29.74 in 6.0 mi WSW 13.8 mph - N/A   Haze
11:53 AM 32.0 °F 23.0 °F 26.1 °F 79% 29.74 in 5.0 mi West 11.5 mph - N/A   Haze
12:53 PM 32.0 °F 23.0 °F 27.0 °F 82% 29.71 in 5.0 mi West 11.5 mph - N/A   Haze
1:53 PM 33.1 °F 23.4 °F 28.0 °F 82% 29.70 in 5.0 mi West 13.8 mph 19.6 mph N/A   Haze
2:39 PM 34.0 °F 24.2 °F 28.9 °F 82% 29.67 in 6.0 mi West 15.0 mph - N/A   Haze
2:53 PM 35.1 °F 25.5 °F 30.0 °F 82% 29.68 in 6.0 mi WSW 15.0 mph - N/A   Haze
3:53 PM 37.0 °F 29.3 °F 30.9 °F 79% 29.68 in 8.0 mi West 11.5 mph - N/A   Scattered Clouds
4:00 PM 37.0 °F 28.9 °F 30.0 °F 76% 29.67 in 9.0 mi West 12.7 mph - N/A   Mostly Cloudy
4:53 PM 37.0 °F 28.5 °F 30.9 °F 79% 29.70 in 10.0 mi West 13.8 mph - N/A   Mostly Cloudy
5:40 PM 36.0 °F 30.3 °F 30.0 °F 79% 29.70 in 9.0 mi WSW 6.9 mph - N/A   Scattered Clouds
5:53 PM 37.0 °F 32.4 °F 30.0 °F 76% 29.72 in 9.0 mi WSW 5.8 mph - N/A   Partly Cloudy
6:11 PM 36.0 °F 31.1 °F 30.0 °F 79% 29.71 in 10.0 mi WSW 5.8 mph - N/A   Mostly Cloudy
6:53 PM 37.0 °F 32.4 °F 30.0 °F 76% 29.73 in 10.0 mi SW 5.8 mph - N/A   Overcast
7:53 PM 37.9 °F 32.1 °F 30.0 °F 73% 29.75 in 10.0 mi SW 8.1 mph - N/A   Overcast
8:53 PM 37.0 °F 31.6 °F 30.0 °F 76% 29.75 in 10.0 mi SW 6.9 mph - N/A   Overcast
9:53 PM 37.0 °F 31.0 °F 30.0 °F 76% 29.74 in 10.0 mi SW 8.1 mph - N/A   Overcast
10:49 PM 35.6 °F 29.2 °F 30.2 °F 81% 29.71 in 10.0 mi SW 8.1 mph - N/A   Scattered Clouds
10:53 PM 36.0 °F 29.0 °F 30.0 °F 79% 29.73 in 10.0 mi SW 9.2 mph - N/A   Partly Cloudy
11:53 PM 35.1 °F 29.3 °F 30.0 °F 82% 29.74 in 10.0 mi SW 6.9 mph - N/A   Clear